Regional Weather Roundup
Issued by NWS

Home | Current Version | Previous Version | Graphics & Text | Print | Product List | Glossary On
Versions: 1 2 3 4 5 6 7 8 9 10 11 12 13 14 15 16 17 18 19 20 21 22 23 24 25 26 27 28 29 30 31 32 33 34 35 36 37 38 39 40 41 42 43 44 45 46 47 48 49 50
000
ASUS43 KMKX 171821
RWRWI

WISCONSIN REGIONAL WEATHER ROUNDUP
NATIONAL WEATHER SERVICE MILWAUKEE/SULLIVAN WI
1200 PM CST WED DEC 17 2014

NOTE: "FAIR" INDICATES FEW OR NO CLOUDS BELOW 12,000 FEET WITH NO
SIGNIFICANT WEATHER AND/OR OBSTRUCTIONS TO VISIBILITY.

WIZ001-002-006>008-014>016-023>028-171900-
NORTHWEST WISCONSIN

CITY           SKY/WX    TMP DP  RH WIND       PRES   REMARKS
SUPERIOR ARPT  CLOUDY    19  11  72 CALM      30.29F
6HR MIN TEMP:  13; 6HR MAX TEMP:  19;

ASHLAND        PTSUNNY   22  17  81 W5        30.25S WCI  16
6HR MIN TEMP:  14; 6HR MAX TEMP:  22; 6HR PCP: TRACE;

HAYWARD        PTSUNNY   18   9  68 VRB6      30.24S WCI  10
6HR MIN TEMP:  12; 6HR MAX TEMP:  18; 6HR PCP: TRACE;

SIREN          PTSUNNY   17   9  70 NE7       30.28S WCI   8
6HR MIN TEMP:  10; 6HR MAX TEMP:  17;

CUMBERLAND     CLOUDY    16   9  73 NW7       30.25S WCI   6
RICE LAKE      FAIR      18   9  70 NW5       30.28S WCI  11
6HR MIN TEMP:  15; 6HR MAX TEMP:  18;

CHETEK         CLOUDY    17   9  72 NW3       30.26S
6HR MIN TEMP:  15; 6HR MAX TEMP:  17;

LADYSMITH      FAIR      19  10  68 W6        30.24F WCI  10
6HR MIN TEMP:  16; 6HR MAX TEMP:  19;

EAU CLAIRE     CLOUDY    18  10  71 NW10      30.26F WCI   6
6HR MIN TEMP:  17; 6HR MAX TEMP:  19; 6HR PCP: TRACE;

MENOMONIE      FLURRIES  19  11  71 NW7       30.28S WCI   9
6HR MIN TEMP:  16; 6HR MAX TEMP:  19;

NEW RICHMOND   FLURRIES  16  11  80 W8        30.30R WCI   6
6HR MIN TEMP:  10; 6HR MAX TEMP:  17;

OSCEOLA        CLOUDY    17  10  74 CALM      30.33S
6HR MIN TEMP:  11; 6HR MAX TEMP:  17;

$$

WIZ003>005-009-010-017-018-171900-
NORTH CENTRAL WISCONSIN

CITY           SKY/WX    TMP DP  RH WIND       PRES   REMARKS
MANITOWISH WTR LGT SNOW  18  14  83 NW9       30.13F WCI   7
6HR MIN TEMP:  15; 6HR MAX TEMP:  18;

ARBOR VITAE    FLURRIES  21  15  78 NW8       30.13F WCI  11
6HR MIN TEMP:  17; 6HR MAX TEMP:  21;

WOODRUFF       FLURRIES  21  15  78 NW8       30.13F WCI  11
6HR MIN TEMP:  17; 6HR MAX TEMP:  21;

RHINELANDER    CLOUDY    19  12  74 W12       30.13F WCI   7
6HR MIN TEMP:  14; 6HR MAX TEMP:  19; 6HR PCP: TRACE;

EAGLE RIVER    LGT SNOW  19  13  79 NW10      30.11F WCI   7
6HR MIN TEMP:  16; 6HR MAX TEMP:  19;

LAND O LAKES   LGT SNOW  22  19  86 NW10      30.11F WCI  11
6HR MIN TEMP:  18; 6HR MAX TEMP:  22;

PHILLIPS       PTSUNNY   18  10  70 NW5       30.17F WCI  11
6HR MIN TEMP:  13; 6HR MAX TEMP:  18;

TOMAHAWK       MOSUNNY   19  12  72 W8        30.16F WCI   9
6HR MIN TEMP:  11; 6HR MAX TEMP:  19;

MEDFORD        FAIR      16   9  73 W8        30.18S WCI   5
6HR MIN TEMP:  15; 6HR MAX TEMP:  17;

MERRILL        FAIR      20  10  66 N7        30.17S WCI  11
6HR MIN TEMP:  15; 6HR MAX TEMP:  20;

$$

WIZ029-030-035-036-043>047-171900-
CENTRAL WISCONSIN

CITY           SKY/WX    TMP DP  RH WIND       PRES   REMARKS
WAUSAU         FAIR      20  10  65 W10       30.17S WCI   9
6HR MIN TEMP:  18; 6HR MAX TEMP:  20; 6HR PCP: TRACE;

MOSINEE        CLOUDY    19  14  79 W14       30.18F WCI   6
MARSHFIELD     LGT SNOW  20  13  74 N9        30.20S WCI   9
6HR MIN TEMP:  20; 6HR MAX TEMP:  21; 6HR PCP: TRACE;

STEVENS POINT  FLURRIES  19  11  69 NW10      30.19F WCI   7
6HR MIN TEMP:  19; 6HR MAX TEMP:  19;

WAUPACA        CLOUDY    26  15  63 NW12      30.20S WCI  15
6HR MIN TEMP:  24; 6HR MAX TEMP:  26;

WAUTOMA        CLOUDY    24  16  71 W12       30.20F WCI  13
6HR MIN TEMP:  23; 6HR MAX TEMP:  24; 6HR PCP: TRACE;

WISC RAPIDS    CLOUDY    21  12  68 NW8       30.21F WCI  11
6HR MIN TEMP:  21; 6HR MAX TEMP:  22; 6HR PCP: TRACE;

CAMP DOUGLAS   CLOUDY    21  19  93 NW10      30.23F WCI  10
                                      6HR PCP: TRACE;

$$

WIZ011>013-019>022-031-037>040-048>050-171900-
NORTHEAST WISCONSIN

CITY           SKY/WX    TMP DP  RH WIND       PRES   REMARKS
ANTIGO         CLOUDY    19  12  74 NW12      30.13F WCI   7
6HR MIN TEMP:  16; 6HR MAX TEMP:  19;

SHAWANO        PTSUNNY   26  15  63 NW12G17   30.17F WCI  15
6HR MIN TEMP:  23; 6HR MAX TEMP:  26;

OCONTO         CLOUDY    25  16  70 W14G20    30.14F WCI  13
6HR MIN TEMP:  22; 6HR MAX TEMP:  25;

STURGEON BAY   CLOUDY    25  16  68 W17       30.12F WCI  11
6HR MIN TEMP:  23; 6HR MAX TEMP:  25;

GREEN BAY      CLOUDY    25  16  68 NW13      30.16F WCI  14
6HR MIN TEMP:  24; 6HR MAX TEMP:  25; 6HR PCP: TRACE;

MANITOWOC      MOSUNNY   28  17  63 NW18G25   30.15F WCI  15
6HR MIN TEMP:  23; 6HR MAX TEMP:  28; 6HR PCP: TRACE;

APPLETON       PTSUNNY  N/A N/A N/A NW15      30.18F
CLINTONVILLE   MOSUNNY   25  12  58 NW14      30.18S WCI  13
OSHKOSH        FLURRIES  24  16  71 NW16G22   30.18F WCI  11
6HR MIN TEMP:  23; 6HR MAX TEMP:  24; 6HR PCP: TRACE;

$$

WIZ032>034-041-042-053>061-171900-
SOUTHWEST WISCONSIN

CITY           SKY/WX    TMP DP  RH WIND       PRES   REMARKS
LA CROSSE      FAIR      23  12  62 N10       30.28F WCI  12
6HR MIN TEMP:  20; 6HR MAX TEMP:  23; 6HR PCP: TRACE;

SPARTA         FLURRIES  22  13  69 NW8       30.26F WCI  12
6HR MIN TEMP:  20; 6HR MAX TEMP:  22;

VIROQUA        CLOUDY    19  14  81 NW10G16   30.22F WCI   8
6HR MIN TEMP:  18; 6HR MAX TEMP:  20;

BOSCOBEL       CLOUDY    22  14  71 W6        30.28F WCI  14
6HR MIN TEMP:  22; 6HR MAX TEMP:  23; 6HR PCP: TRACE;

PRAIRIE DU CHI CLOUDY    21  11  66 NW8       30.29F WCI  11
6HR MIN TEMP:  19; 6HR MAX TEMP:  22;

PLATTEVILLE    CLOUDY    21  16  81 W5        30.26S WCI  14
6HR MIN TEMP:  21; 6HR MAX TEMP:  23;

$$

WIZ056-057-062-063-064-067-068-171900-
SOUTH CENTRAL WISCONSIN

CITY           SKY/WX    TMP DP  RH WIND       PRES   REMARKS
REEDSBURG      CLOUDY    23  14  69 NW12      30.22F WCI  11
6HR MIN TEMP:  21; 6HR MAX TEMP:  23;

BARABOO/DELLS  CLOUDY    23  15  70 NW9       30.21F WCI  13
6HR MIN TEMP:  21; 6HR MAX TEMP:  23;

LONE ROCK      CLOUDY    26  14  60 W10       30.25F WCI  16
6HR MIN TEMP:  26; 6HR MAX TEMP:  27;

MINERAL POINT  FLURRIES  23  18  80 NW8       30.22F WCI  14
MADISON        FLURRIES  24  15  68 NW9       30.21F WCI  14
6HR MIN TEMP:  23; 6HR MAX TEMP:  25; 6HR PCP: TRACE;

MIDDLETON      CLOUDY    26  16  66 NW9       30.21F WCI  16
6HR MIN TEMP:  24; 6HR MAX TEMP:  26;

WATERTOWN      CLOUDY    24  17  76 NW9       30.19F WCI  14
6HR MIN TEMP:  23; 6HR MAX TEMP:  24;

MONROE         CLOUDY    25  19  80 W12       30.21F WCI  14
JANESVILLE     CLOUDY    27  18  69 NW12      30.22F WCI  16
$$

WIZ051-052-058>065-066-070>072-171900-
SOUTHEAST WISCONSIN

CITY           SKY/WX    TMP DP  RH WIND       PRES   REMARKS
MILWAUKEE      CLOUDY    26  14  60 W13G22    30.19F WCI  15
6HR MIN TEMP:  26; 6HR MAX TEMP:  27;

WAUKESHA       CLOUDY    23  16  74 W14       30.20S WCI  11
MILWAUKEE/TIMM CLOUDY    25  16  68 W12       30.20F WCI  14
RACINE         CLOUDY    26  15  63 NW14      30.21F WCI  14
6HR MIN TEMP:  26; 6HR MAX TEMP:  27;

BURLINGTON     CLOUDY    24  17  74 W9        30.20F WCI  14
6HR MIN TEMP:  23; 6HR MAX TEMP:  24;

KENOSHA        CLOUDY    26  17  68 NW15      30.20F WCI  14
6HR MIN TEMP:  25; 6HR MAX TEMP:  26;

FOND DU LAC    CLOUDY    24  16  71 W15       30.18F WCI  11
6HR MIN TEMP:  24; 6HR MAX TEMP:  25; 6HR PCP: TRACE;

SHEBOYGAN      MOSUNNY   25  15  66 NW13      30.16F WCI  14
6HR MIN TEMP:  24; 6HR MAX TEMP:  25; 6HR PCP: TRACE;

WEST BEND      FLURRIES  25  18  74 W14G20    30.17F WCI  13
JUNEAU         CLOUDY    23  16  74 W10G16    30.20F WCI  12
6HR MIN TEMP:  22; 6HR MAX TEMP:  23;

$$

LSZ147-162-171900-
LAKE SUPERIOR

STATION/POSITION TIME  TEMP    WIND        PRES    WAVE
                       AIR SEA DIR/SP/G            HT/PER
                 (UTC) (F)     (DEG/KT/KT) (MB)    (FT/S)
DEVILS ISLAND    1800   24      20/ 12/ 15 1025.4S
PORT WING        1700   21     350/  8/ 10 1025.1S
SAXON HARBOR     1700   21     250/  3/  9 1024.0
$$

LMZ867-665-643>646-171900-
LAKE MICHIGAN

STATION/POSITION TIME  TEMP    WIND        PRES    WAVE



USA.gov is the U.S. government's official web portal to all federal, state and local government web resources and services.